TIANMU-1 18

Last updated on Sat Aug 15 2026 00:02:41 GMT+0000 (Coordinated Universal Time)

1 58703U 24004D 26226.63402432 .00002959 00000+0 11384-3 0 9999 2 58703 97.4666 52.8074 0006311 122.4889 237.6960 15.27181445144699
UTC large
Height (km)
Speed (km/s)
/
Latitude / Longitude
Inclination (degrees)
Orbital Period (minutes)
Azimuth
Elevation
Range (km)
Doppler Factor

Next 0 passes for location: London (51.5072 / 0.1276)

No passes found over London.
TIANMU-1 18